Previsão horária em 1-e Tukatovo

Hoje, 14 Abril, Quarta-feira

Tempo Temperatura Precipitação Vento Pressão Humidade
00:00 +2°C° 0 mm 2 m/s 750 mmHg 97%
01:00 +2°C° 0 mm 2 m/s 750 mmHg 97%
02:00 +2°C° 0 mm 2 m/s 750 mmHg 96%
03:00 +3°C° 0 mm 1 m/s 750 mmHg 96%
04:00 +2°C° 0 mm 1 m/s 750 mmHg 95%
05:00 +3°C° 0 mm 1 m/s 749 mmHg 94%
06:00 +2°C° 0 mm 2 m/s 749 mmHg 92%
07:00 +3°C° 0 mm 2 m/s 749 mmHg 91%
08:00 +5°C° 0 mm 2 m/s 749 mmHg 83%
09:00 +7°C° 0 mm 2 m/s 748 mmHg 75%
10:00 +9°C° 0 mm 3 m/s 748 mmHg 67%
11:00 +11°C° 0 mm 3 m/s 748 mmHg 62%
12:00 +12°C° 0 mm 4 m/s 747 mmHg 56%
13:00 +13°C° 0 mm 4 m/s 747 mmHg 51%
14:00 +13°C° 0 mm 4 m/s 746 mmHg 51%
15:00 +14°C° 0 mm 4 m/s 746 mmHg 52%
16:00 +14°C° 0 mm 4 m/s 746 mmHg 52%
17:00 +12°C° 0 mm 3 m/s 746 mmHg 59%
18:00 +10°C° 0 mm 3 m/s 745 mmHg 66%
19:00 +8°C° 0 mm 3 m/s 745 mmHg 72%
20:00 +7°C° 0 mm 2 m/s 745 mmHg 74%
21:00 +6°C° 0 mm 2 m/s 745 mmHg 75%
22:00 +5°C° 0 mm 2 m/s 745 mmHg 76%
23:00 +5°C° 0 mm 2 m/s 745 mmHg 76%

Amanhã, 15 Abril, Quinta-feira

Tempo Temperatura Precipitação Vento Pressão Humidade
00:00 +4°C° 0 mm 2 m/s 745 mmHg 76%
01:00 +5°C° 0 mm 1 m/s 745 mmHg 76%
02:00 +6°C° 0 mm 1 m/s 744 mmHg 71%
03:00 +5°C° 0 mm 1 m/s 744 mmHg 74%
04:00 +5°C° 0 mm 1 m/s 745 mmHg 77%
05:00 +5°C° 0 mm 1 m/s 744 mmHg 75%
06:00 +6°C° 0 mm 1 m/s 744 mmHg 73%
07:00 +7°C° 0 mm 1 m/s 744 mmHg 71%
08:00 +9°C° 0 mm 1 m/s 743 mmHg 63%
09:00 +11°C° 0 mm 1 m/s 743 mmHg 56%
10:00 +14°C° 0 mm 2 m/s 743 mmHg 48%
11:00 +15°C° 0 mm 2 m/s 743 mmHg 44%
12:00 +17°C° 0 mm 2 m/s 742 mmHg 40%
13:00 +18°C° 0 mm 2 m/s 742 mmHg 35%
14:00 +11°C° 0 mm 1 m/s 743 mmHg 58%
15:00 +15°C° 0 mm 2 m/s 742 mmHg 45%
16:00 +19°C° 0 mm 2 m/s 741 mmHg 33%
17:00 +17°C° 0 mm 2 m/s 740 mmHg 39%
18:00 +15°C° 0 mm 1 m/s 740 mmHg 46%
19:00 +14°C° 0 mm 1 m/s 740 mmHg 52%
20:00 +13°C° 0 mm 1 m/s 739 mmHg 56%
21:00 +12°C° 0 mm 1 m/s 739 mmHg 59%
22:00 +10°C° 0 mm 1 m/s 739 mmHg 62%
23:00 +10°C° 0 mm 1 m/s 739 mmHg 63%

Depois de amanhã, 16 Abril, Sexta-feira

Tempo Temperatura Precipitação Vento Pressão Humidade
00:00 +9°C° 0 mm 1 m/s 739 mmHg 64%
01:00 +9°C° 0 mm 1 m/s 738 mmHg 65%
02:00 +8°C° 0 mm 1 m/s 738 mmHg 66%
03:00 +8°C° 0 mm 1 m/s 738 mmHg 66%
04:00 +7°C° 0 mm 1 m/s 738 mmHg 67%
05:00 +8°C° 0 mm 1 m/s 738 mmHg 66%
06:00 +8°C° 0 mm 1 m/s 738 mmHg 66%
07:00 +9°C° 0 mm 1 m/s 738 mmHg 65%
08:00 +11°C° 0 mm 1 m/s 738 mmHg 59%
09:00 +13°C° 0 mm 1 m/s 738 mmHg 53%
10:00 +15°C° 0 mm 2 m/s 737 mmHg 47%
11:00 +16°C° 0 mm 2 m/s 737 mmHg 42%
12:00 +18°C° 0 mm 2 m/s 737 mmHg 37%
13:00 +19°C° 0 mm 2 m/s 737 mmHg 32%
14:00 +19°C° 0 mm 2 m/s 737 mmHg 31%
15:00 +19°C° 0 mm 2 m/s 737 mmHg 30%
16:00 +19°C° 0 mm 2 m/s 737 mmHg 29%
17:00 +18°C° 0 mm 2 m/s 736 mmHg 37%
18:00 +16°C° 0 mm 2 m/s 736 mmHg 44%
19:00 +15°C° 0 mm 2 m/s 736 mmHg 51%
20:00 +14°C° 0 mm 2 m/s 736 mmHg 58%
21:00 +13°C° 0 mm 2 m/s 737 mmHg 64%
22:00 +12°C° 0 mm 2 m/s 737 mmHg 71%
23:00 +10°C° 0 mm 2 m/s 737 mmHg 76%

17 Abril, Sábado

Tempo Temperatura Precipitação Vento Pressão Humidade
00:00 +9°C° 0 mm 2 m/s 737 mmHg 80%
01:00 +8°C° 0 mm 2 m/s 737 mmHg 85%
02:00 +8°C° 0 mm 2 m/s 737 mmHg 88%
03:00 +7°C° 0 mm 2 m/s 737 mmHg 90%
04:00 +6°C° 0 mm 2 m/s 737 mmHg 93%
05:00 +7°C° 0 mm 2 m/s 737 mmHg 91%
06:00 +7°C° 0 mm 2 m/s 738 mmHg 90%
07:00 +7°C° 0 mm 2 m/s 738 mmHg 88%
08:00 +9°C° 0 mm 2 m/s 738 mmHg 83%
09:00 +11°C° 0 mm 1 m/s 738 mmHg 77%
10:00 +12°C° 0 mm 1 m/s 738 mmHg 71%
11:00 +12°C° 0 mm 2 m/s 738 mmHg 70%
12:00 +13°C° 0 mm 2 m/s 738 mmHg 68%
13:00 +13°C° 0 mm 2 m/s 738 mmHg 66%
14:00 +11°C° 0 mm 3 m/s 738 mmHg 68%
15:00 +11°C° 0 mm 3 m/s 738 mmHg 70%
16:00 +11°C° 0 mm 3 m/s 738 mmHg 72%
17:00 +10°C° 0 mm 2 m/s 738 mmHg 72%
18:00 +10°C° 0 mm 2 m/s 738 mmHg 72%
19:00 +10°C° 0 mm 1 m/s 738 mmHg 73%
20:00 +8°C° 0 mm 2 m/s 738 mmHg 72%
21:00 +7°C° 0 mm 2 m/s 738 mmHg 71%
22:00 +6°C° 0 mm 2 m/s 739 mmHg 70%
23:00 +5°C° 0 mm 2 m/s 739 mmHg 71%

18 Abril, Domingo

Tempo Temperatura Precipitação Vento Pressão Humidade
00:00 +4°C° 0 mm 2 m/s 739 mmHg 73%
01:00 +4°C° 0 mm 2 m/s 739 mmHg 74%
02:00 +3°C° 0 mm 2 m/s 739 mmHg 75%
03:00 +3°C° 0 mm 2 m/s 739 mmHg 76%
04:00 +2°C° 0 mm 2 m/s 739 mmHg 77%
05:00 +2°C° 0 mm 3 m/s 740 mmHg 74%
06:00 +2°C° 0 mm 3 m/s 740 mmHg 70%
07:00 +3°C° 0 mm 3 m/s 740 mmHg 67%
08:00 +4°C° 0 mm 4 m/s 740 mmHg 60%
09:00 +5°C° 0 mm 4 m/s 740 mmHg 53%
10:00 +6°C° 0 mm 5 m/s 740 mmHg 46%
11:00 +7°C° 0 mm 5 m/s 740 mmHg 45%
12:00 +8°C° 0 mm 6 m/s 740 mmHg 44%
13:00 +8°C° 0 mm 6 m/s 740 mmHg 43%
14:00 +8°C° 0 mm 6 m/s 740 mmHg 43%
15:00 +8°C° 0 mm 7 m/s 740 mmHg 42%
16:00 +8°C° 0 mm 7 m/s 740 mmHg 42%
17:00 +7°C° 0 mm 6 m/s 741 mmHg 45%
18:00 +5°C° 0 mm 6 m/s 741 mmHg 48%
19:00 +3°C° 0 mm 6 m/s 742 mmHg 51%
20:00 +2°C° 0 mm 5 m/s 742 mmHg 51%
21:00 +1°C° 0 mm 4 m/s 743 mmHg 51%
22:00 +1°C° 0 mm 3 m/s 743 mmHg 51%
23:00 0°C° 0 mm 4 m/s 743 mmHg 55%

19 Abril, Segunda-feira

Tempo Temperatura Precipitação Vento Pressão Humidade
00:00 -1°C° 0 mm 4 m/s 744 mmHg 59%
01:00 -2°C° 0 mm 5 m/s 744 mmHg 63%
02:00 -2°C° 0 mm 4 m/s 745 mmHg 63%
03:00 -2°C° 0 mm 4 m/s 746 mmHg 63%
04:00 -2°C° 0 mm 4 m/s 746 mmHg 64%
05:00 -2°C° 0 mm 4 m/s 747 mmHg 58%
06:00 -2°C° 0 mm 5 m/s 747 mmHg 52%
07:00 -2°C° 0 mm 5 m/s 748 mmHg 46%
08:00 -1°C° 0 mm 5 m/s 748 mmHg 39%
09:00 0°C° 0 mm 5 m/s 749 mmHg 32%
10:00 +1°C° 0 mm 4 m/s 749 mmHg 25%
11:00 +3°C° 0 mm 4 m/s 749 mmHg 25%
12:00 +4°C° 0 mm 4 m/s 749 mmHg 24%
13:00 +4°C° 0 mm 3 m/s 749 mmHg 23%
14:00 +4°C° 0 mm 3 m/s 749 mmHg 23%
15:00 +5°C° 0 mm 3 m/s 749 mmHg 23%
16:00 +5°C° 0 mm 3 m/s 749 mmHg 23%
17:00 +5°C° 0 mm 2 m/s 749 mmHg 28%
18:00 +4°C° 0 mm 2 m/s 749 mmHg 33%
19:00 +3°C° 0 mm 2 m/s 749 mmHg 38%
20:00 +2°C° 0 mm 2 m/s 750 mmHg 40%
21:00 +1°C° 0 mm 2 m/s 750 mmHg 43%
22:00 +1°C° 0 mm 1 m/s 750 mmHg 46%
23:00 +1°C° 0 mm 1 m/s 750 mmHg 47%
Mostrar mais

Necessitamos do seu Consentimento

A Meteoprog e os seus Fornecedores de Serviços podem armazenar e aceder a dados pessoais como cookies, identificadores do dispositivo ou outras tecnologias semelhantes existentes no seu dispositivo e processar estes dados para personalizar conteúdos e anúncios, assim como funcionalidades nas redes sociais e análise de tráfego.

  • Armazenar e/ou aceder a informações no seu dispositivo

    Os cookies, identificadores do dispositivo ou outras informações podem ser armazenados ou acedidos no seu dispositivo, para os fins acima indicados.

  • Anúncios e conteúdos personalizados, medição de anúncios e conteúdos, dados sobre o público-alvo e desenvolvimento de produtos

    Os anúncios e os conteúdos podem ser personalizados com base num perfil. Podem ser adicionados dados adicionais para uma maior personalização dos anúncios e dos conteúdos. A eficácia dos anúncios e dos conteúdos pode ser medida. Podem ser obtidas informações sobre o público que visualizou os anúncios e os conteúdos. Estes dados podem ser usados para desenvolver ou melhorar sistemas, softwares ou a experiência do utilizador.

Ao clicar em "Eu concordo”, permitirá o uso de cookies, identificadores do dispositivo e web beacons mencionados ou outras tecnologias semelhantes. As configurações do navegador do seu dispositivo podem ser alteradas.

Para certos fins, podem ser invocados interesses legítimos ao invés de consentimento. Pode ler mais informação sobre este assunto na nossa Política de Privacidade e Cookies.